Hourly Data Report for December 07, 2021

TORONTO CITY
ONTARIO
Current Station Operator: ECCC - MSC

43°40'00.000" N
79°24'00.000" W
112.50 m
6158355
71508
XTO

Download Data

Hourly Data (December 2021)
Hourly Data Report for December 7, 2021
TIME
LST
Temp Definition
°C
Dew Point Definition
°C
Rel Hum Definition
%
Precip. Amount Definition
mm

Wind Dir Definition
10's deg

Wind Spd Definition
km/h
Visibility Definition
km
Stn Press Definition
kPa
Hmdx Definition


Wind Chill Definition


Weather Definition


00:00 -0.4 -7.2 60 0.0       99.96     LegendNANA
01:00 -0.8 -6.4 66 0.0       100.07     LegendNANA
02:00 -0.8 -4.7 75 0.0       100.17     LegendNANA
03:00 -1.4 -5.5 74 0.0       100.29     LegendNANA
04:00 -1.5 -4.8 78 0.0       100.40     LegendNANA
05:00 -1.3 -5.8 71 0.0       100.43     LegendNANA
06:00 -2.3 -6.9 71 0.0       100.47     LegendNANA
07:00 -2.7 -7.4 70 0.0       100.54     LegendNANA
08:00 -3.1 -7.6 71 0.0       100.59     LegendNANA
09:00 -2.2 -7.8 66 0.0       100.62     LegendNANA
10:00 -1.9 -8.4 61 0.0       100.74     LegendNANA
11:00 -1.8 -8.7 59 0.0       100.79     LegendNANA
12:00 -1.9 -9.7 55 0.0       100.70     LegendNANA
13:00 -1.9 -8.8 59 0.0       100.72     LegendNANA
14:00 -1.5 -9.7 54 0.0       100.71     LegendNANA
15:00 -1.8 -9.7 55 0.0       100.73     LegendNANA
16:00 -2.0 -8.5 61 0.0       100.76     LegendNANA
17:00 -2.5 -9.2 60 0.0       100.80     LegendNANA
18:00 -3.1 -10.0 59 0.0       100.74     LegendNANA
19:00 -3.5 -10.7 57 0.0       100.76     LegendNANA
20:00 -4.2 -10.4 62 0.0       100.74     LegendNANA
21:00 -4.5 -10.3 64 0.0       100.79     LegendNANA
22:00 -4.6 -11.2 60 0.0       100.74     LegendNANA
23:00 -4.9 -11.1 62 0.0       100.71     LegendNANA

Notes on Data Quality.

Legend

  • E = Estimated
  • M = Missing
  • NA = Not Available*
  • [empty] = Indicates an unobserved value
Date modified: